Find STARLINK-37953

NORAD ID: 799501041 Int'l Des: 2026-146T Constellation: starlink operational

Current View

Loading 3D Globe...

About STARLINK-37953

STARLINK-37953 (NORAD 799501041) is a starlink constellation satellite launched Jun 12, 2026

About STARLINK-37953

Description loading...

Upcoming Passes

Passes for default location (London). Set your location on the main map for personalized predictions.

Altitude History

Loading altitude history...

Two-Line Element Set

1 99999C 2026146T 26176.32270832 .00732070 00000-0 112300-3 0 1761
2 99999 97.2854 21.9775 0011203 277.0542 147.9655 16.03842251 17
Epoch: Jun 25, 2026 • Age: 9 hours